AUA1809 LOWI-LOWG

Flight info

Callsign AUA1809
Flight time 0h 39m
Altitude 19000
Route OBEDI DCT ABIRI ABIRI2M
Aircraft A21N/M-SDE2E3FGHIRWXY/LB1

Departure

Time 2026-05-01 09:11
Airport Innsbruck Airport (LOWI)

Arrival

Time 2026-05-01 09:50
Airport Graz Airport (LOWG)
Time Latitude Longitude Altitude Speed Heading
2026-05-01 08:42 47.25815 11.34929 1899 ft 0 kts 171°
2026-05-01 08:56 47.25820 11.34928 1910 ft 4 kts 171°
2026-05-01 08:56 47.25843 11.34922 1905 ft 4 kts 157°
2026-05-01 08:56 47.25859 11.34900 1908 ft 4 kts 95°
2026-05-01 08:57 47.25858 11.34869 1907 ft 1 kts 81°
2026-05-01 08:57 47.25857 11.34863 1905 ft 0 kts 81°
2026-05-01 09:05 47.25857 11.34865 1910 ft 1 kts 81°
2026-05-01 09:06 47.25859 11.34884 1901 ft 3 kts 81°
2026-05-01 09:06 47.25864 11.34925 1910 ft 5 kts 80°
2026-05-01 09:06 47.25871 11.34980 1902 ft 6 kts 79°
2026-05-01 09:06 47.25877 11.35039 1905 ft 5 kts 87°
2026-05-01 09:07 47.25882 11.35103 1897 ft 8 kts 81°
2026-05-01 09:07 47.25893 11.35193 1904 ft 10 kts 79°
2026-05-01 09:07 47.25917 11.35279 1906 ft 7 kts 30°
2026-05-01 09:07 47.25963 11.35282 1901 ft 7 kts 351°
2026-05-01 09:08 47.26012 11.35268 1899 ft 7 kts 349°
2026-05-01 09:08 47.26065 11.35252 1899 ft 8 kts 347°
2026-05-01 09:08 47.26115 11.35266 1906 ft 7 kts 51°
2026-05-01 09:08 47.26128 11.35343 1898 ft 10 kts 80°
2026-05-01 09:09 47.26140 11.35463 1898 ft 14 kts 85°
2026-05-01 09:09 47.26122 11.35612 1902 ft 16 kts 107°
2026-05-01 09:09 47.26135 11.35716 1894 ft 6 kts 12°
2026-05-01 09:09 47.26157 11.35681 1896 ft 5 kts 284°
2026-05-01 09:10 47.26155 11.35631 1904 ft 5 kts 259°
2026-05-01 09:10 47.26122 11.35343 1899 ft 59 kts 262°
2026-05-01 09:10 47.26028 11.34445 1908 ft 119 kts 261°
2026-05-01 09:10 47.25867 11.32942 1954 ft 168 kts 262°
2026-05-01 09:11 47.25833 11.31241 2534 ft 171 kts 272°
2026-05-01 09:11 47.25932 11.29410 3007 ft 182 kts 276°
2026-05-01 09:11 47.26093 11.27568 3657 ft 181 kts 278°
2026-05-01 09:11 47.26091 11.25646 4145 ft 197 kts 249°
2026-05-01 09:12 47.25130 11.24292 4822 ft 200 kts 195°
2026-05-01 09:12 47.23772 11.24585 5468 ft 207 kts 146°
2026-05-01 09:12 47.22816 11.26197 6063 ft 217 kts 114°
2026-05-01 09:12 47.22619 11.28389 6793 ft 225 kts 77°
2026-05-01 09:13 47.23157 11.30637 7366 ft 238 kts 65°
2026-05-01 09:13 47.23851 11.32857 8343 ft 238 kts 65°
2026-05-01 09:13 47.24531 11.35071 9250 ft 237 kts 66°
2026-05-01 09:13 47.25136 11.37315 10170 ft 236 kts 70°
2026-05-01 09:14 47.25696 11.39670 10687 ft 254 kts 71°
2026-05-01 09:14 47.26271 11.42221 11068 ft 277 kts 72°
2026-05-01 09:14 47.26891 11.45030 11444 ft 300 kts 71°
2026-05-01 09:14 47.27553 11.48061 11803 ft 321 kts 71°
2026-05-01 09:15 47.28256 11.51295 12196 ft 341 kts 71°
2026-05-01 09:15 47.28988 11.54678 12818 ft 351 kts 71°
2026-05-01 09:15 47.29735 11.58132 13594 ft 357 kts 71°
2026-05-01 09:15 47.30489 11.61630 14380 ft 360 kts 71°
2026-05-01 09:16 47.31392 11.65090 15113 ft 363 kts 63°
2026-05-01 09:16 47.32613 11.68361 15875 ft 366 kts 59°
2026-05-01 09:16 47.33925 11.71580 16656 ft 367 kts 58°
2026-05-01 09:17 47.36604 11.78082 18091 ft 373 kts 59°
2026-05-01 09:17 47.37954 11.81375 18745 ft 377 kts 58°
2026-05-01 09:17 47.40667 11.88029 19362 ft 379 kts 59°
2026-05-01 09:18 47.41899 11.91482 19376 ft 381 kts 67°
2026-05-01 09:18 47.42792 11.99191 19329 ft 389 kts 88°
2026-05-01 09:19 47.42394 12.07370 18862 ft 402 kts 94°
2026-05-01 09:19 47.42060 12.11463 18622 ft 401 kts 94°
2026-05-01 09:19 47.41712 12.15542 18351 ft 400 kts 94°
2026-05-01 09:20 47.41060 12.23627 17809 ft 399 kts 94°
2026-05-01 09:20 47.40459 12.31737 17285 ft 395 kts 93°
2026-05-01 09:21 47.39883 12.39779 16772 ft 393 kts 94°
2026-05-01 09:21 47.39593 12.43796 16520 ft 392 kts 94°
2026-05-01 09:21 47.39017 12.51770 16006 ft 390 kts 94°
2026-05-01 09:22 47.38439 12.59698 15522 ft 387 kts 94°
2026-05-01 09:22 47.37856 12.67569 15027 ft 384 kts 94°
2026-05-01 09:23 47.37564 12.71486 14780 ft 385 kts 94°
2026-05-01 09:23 47.36977 12.79296 14306 ft 382 kts 94°
2026-05-01 09:24 47.36384 12.87049 13793 ft 379 kts 94°
2026-05-01 09:24 47.36091 12.90907 13513 ft 378 kts 94°
2026-05-01 09:24 47.35507 12.98608 13361 ft 377 kts 94°
2026-05-01 09:25 47.34899 13.06265 13343 ft 375 kts 94°
2026-05-01 09:25 47.34303 13.13922 13344 ft 376 kts 94°
2026-05-01 09:26 47.33998 13.17751 13383 ft 376 kts 94°
2026-05-01 09:26 47.33396 13.25410 13352 ft 376 kts 94°
2026-05-01 09:26 47.33092 13.29188 13362 ft 376 kts 96°
2026-05-01 09:27 47.31502 13.36571 13373 ft 381 kts 111°
2026-05-01 09:27 47.30374 13.40113 13366 ft 382 kts 112°
2026-05-01 09:27 47.29208 13.43637 13378 ft 382 kts 112°
2026-05-01 09:28 47.28032 13.47156 13360 ft 382 kts 112°
2026-05-01 09:28 47.26853 13.50664 13369 ft 382 kts 112°
2026-05-01 09:28 47.25672 13.54175 13366 ft 383 kts 112°
2026-05-01 09:28 47.24487 13.57687 13353 ft 383 kts 112°
2026-05-01 09:29 47.22118 13.64701 13368 ft 382 kts 113°
2026-05-01 09:29 47.20928 13.68205 13377 ft 381 kts 113°
2026-05-01 09:30 47.18572 13.75154 13390 ft 383 kts 112°
2026-05-01 09:30 47.17379 13.78650 13373 ft 382 kts 112°
2026-05-01 09:30 47.15002 13.85622 13381 ft 382 kts 112°
2026-05-01 09:31 47.13812 13.89108 13376 ft 382 kts 112°
2026-05-01 09:31 47.12620 13.92597 13372 ft 382 kts 112°
2026-05-01 09:31 47.10229 13.99570 13385 ft 382 kts 112°
2026-05-01 09:32 47.09033 14.03054 13375 ft 382 kts 112°
2026-05-01 09:32 47.06639 14.10013 13372 ft 382 kts 112°
2026-05-01 09:32 47.05443 14.13489 13386 ft 381 kts 112°
2026-05-01 09:33 47.04250 14.16948 13386 ft 380 kts 112°
2026-05-01 09:33 47.03068 14.20365 13387 ft 380 kts 112°
2026-05-01 09:33 47.00675 14.27272 13387 ft 380 kts 112°
2026-05-01 09:34 46.99477 14.30725 13388 ft 380 kts 112°
2026-05-01 09:34 46.98277 14.34177 13386 ft 381 kts 112°
2026-05-01 09:34 46.95867 14.41086 13399 ft 381 kts 112°
2026-05-01 09:35 46.94662 14.44539 13396 ft 381 kts 112°
2026-05-01 09:35 46.92253 14.51426 13404 ft 379 kts 112°
2026-05-01 09:35 46.91053 14.54861 13400 ft 380 kts 112°
2026-05-01 09:36 46.89852 14.58298 13396 ft 380 kts 112°
2026-05-01 09:36 46.88645 14.61735 13395 ft 380 kts 112°
2026-05-01 09:36 46.87436 14.65167 13405 ft 380 kts 112°
2026-05-01 09:36 46.86239 14.68561 13231 ft 369 kts 112°
2026-05-01 09:37 46.85076 14.71850 12715 ft 360 kts 112°
2026-05-01 09:37 46.82832 14.78191 11699 ft 343 kts 112°
2026-05-01 09:37 46.81759 14.81226 11430 ft 328 kts 112°
2026-05-01 09:38 46.79782 14.86785 11383 ft 289 kts 111°
2026-05-01 09:38 46.78877 14.89330 11225 ft 278 kts 111°
2026-05-01 09:38 46.77991 14.91838 10658 ft 280 kts 111°
2026-05-01 09:39 46.76936 14.97189 9344 ft 271 kts 81°
2026-05-01 09:39 46.77468 14.99740 8956 ft 263 kts 62°
2026-05-01 09:39 46.78340 15.02063 8655 ft 259 kts 58°
2026-05-01 09:40 46.79259 15.04304 8541 ft 258 kts 58°
2026-05-01 09:40 46.81102 15.08808 8367 ft 259 kts 58°
2026-05-01 09:40 46.82021 15.11083 8287 ft 260 kts 58°
2026-05-01 09:41 46.82933 15.13357 8191 ft 259 kts 58°
2026-05-01 09:41 46.84764 15.17890 7994 ft 258 kts 58°
2026-05-01 09:41 46.85653 15.20106 7870 ft 246 kts 59°
2026-05-01 09:42 46.86493 15.22208 7769 ft 233 kts 59°
2026-05-01 09:42 46.87289 15.24202 7644 ft 222 kts 58°
2026-05-01 09:42 46.88847 15.28104 7541 ft 223 kts 58°
2026-05-01 09:43 46.89464 15.32446 6884 ft 236 kts 107°
2026-05-01 09:43 46.88464 15.34354 6547 ft 244 kts 143°
2026-05-01 09:43 46.86939 15.35470 6222 ft 245 kts 156°
2026-05-01 09:44 46.83745 15.36631 5794 ft 228 kts 167°
2026-05-01 09:44 46.82187 15.37020 5461 ft 226 kts 167°
2026-05-01 09:44 46.80706 15.37590 5075 ft 221 kts 150°
2026-05-01 09:45 46.79553 15.39017 4692 ft 213 kts 119°
2026-05-01 09:45 46.79493 15.43032 3903 ft 204 kts 67°
2026-05-01 09:45 46.80089 15.44878 3598 ft 203 kts 59°
2026-05-01 09:46 46.80817 15.46626 3490 ft 201 kts 55°
2026-05-01 09:46 46.81890 15.47837 3475 ft 198 kts 16°
2026-05-01 09:46 46.83263 15.48135 3489 ft 202 kts
2026-05-01 09:46 46.84666 15.47929 3490 ft 204 kts 350°
2026-05-01 09:47 46.86057 15.47469 3417 ft 204 kts 351°
2026-05-01 09:47 46.87455 15.47205 3106 ft 202 kts 355°
2026-05-01 09:47 46.88845 15.46858 2875 ft 203 kts 348°
2026-05-01 09:47 46.90229 15.46455 2612 ft 202 kts 352°
2026-05-01 09:48 46.91595 15.46079 2370 ft 195 kts 349°
2026-05-01 09:48 46.92869 15.45674 2117 ft 179 kts 349°
2026-05-01 09:48 46.94025 15.45328 1860 ft 162 kts 351°
2026-05-01 09:48 46.95086 15.45062 1626 ft 146 kts 354°
2026-05-01 09:49 46.96039 15.44818 1460 ft 135 kts 349°
2026-05-01 09:49 46.96644 15.44639 1362 ft 133 kts 352°
2026-05-01 09:49 46.97851 15.44316 1147 ft 133 kts 351°
2026-05-01 09:49 46.98440 15.44148 1114 ft 119 kts 349°
2026-05-01 09:50 46.99212 15.43932 1115 ft 53 kts 349°
2026-05-01 09:50 46.99565 15.43840 1114 ft 51 kts 355°
2026-05-01 09:50 46.99751 15.43874 1110 ft 24 kts 14°
2026-05-01 09:50 46.99885 15.43926 1104 ft 14 kts 24°
2026-05-01 09:51 46.99930 15.44016 1111 ft 9 kts 78°
2026-05-01 09:51 46.99933 15.44046 1111 ft 0 kts 82°
2026-05-01 09:51 46.99933 15.44048 1111 ft 1 kts 83°
2026-05-01 09:51 46.99934 15.44061 1109 ft 2 kts 85°
2026-05-01 09:52 46.99921 15.44119 1108 ft 10 kts 133°
2026-05-01 09:52 46.99843 15.44162 1110 ft 13 kts 166°
2026-05-01 09:52 46.99775 15.44181 1113 ft 9 kts 170°
2026-05-01 09:52 46.99717 15.44196 1110 ft 9 kts 170°
2026-05-01 09:53 46.99651 15.44214 1114 ft 11 kts 168°
2026-05-01 09:53 46.99586 15.44241 1110 ft 6 kts 148°
2026-05-01 09:53 46.99558 15.44287 1115 ft 6 kts 126°
2026-05-01 09:53 46.99539 15.44324 1111 ft 0 kts 127°